Location: Praha
(50.0830°N, 14.4670°E)
Time: 17:44:24
(UTC+02:00)

ISS - Pass Details

Date: 22 September 2020
Orbit: 419 x 420 km, 51.6° (Epoch: 24 September)

Event Time Altitude Azimuth Distance (km) Brightness Sun altitude
Rises 20:05:14 0° 244° (WSW) 2,360 0.9 -11.3°
Reaches altitude 10° 20:07:20 10° 242° (WSW) 1,498 -0.2 -11.6°
Maximum altitude 20:10:41 70° 159° (SSE) 451 -3.8 -12.1°
Enters shadow 20:12:56 19° 78° (ENE) 1,066 -2.2 -12.5°
